Wind_Speed
11 13 15 18 17 15 30 32 32 37 33 35 38 35 36 37 35 36 38 39 38 39 39 36 35 33 31 31 30 29 27 24 23 21 21 17 14 13 15 18 19 20 20
9 11 10 13 14 19 19 18 19 22 26 29 30 30 33 34 35 36 36 37 38 38 37 36 34 33 32 30 30 30 28 26 27 25 23 22 20 17 16 18 19 21 22
9 9 12 11 12 19 21 15 19 19 21 23 26 29 31 32 33 33 34 34 34 35 35 34 32 32 30 30 31 30 29 28 28 27 25 24 23 21 19 21 22 23 23
6 10 8 11 9 14 17 12 24 27 27 26 27 27 28 28 30 31 32 31 30 31 32 31 31 30 29 28 29 28 28 29 29 29 29 28 27 25 24 25 25 26 24
3 7 8 6 7 10 10 13 11 4 21 29 31 29 26 27 29 28 30 30 30 29 29 29 28 28 27 27 28 28 29 29 31 32 32 33 33 32 31 28 26 25 26
5 4 3 6 7 11 9 19 13 12 6 11 15 27 30 27 28 19 26 28 27 26 28 29 29 28 26 27 30 30 30 31 31 32 33 37 36 35 32 31 29 28 30
4 3 5 4 6 9 13 14 16 17 14 20 17 12 14 12 10 11 13 17 21 24 22 21 24 23 22 21 23 27 28 29 31 32 34 36 35 35 34 35 33 33 32
5 1 3 6 8 10 10 10 13 15 17 18 25 26 22 23 21 20 16 19 24 24 23 22 24 20 21 23 20 21 24 27 30 33 36 34 32 31 32 32 36 34 33
3 3 5 6 7 6 12 11 10 11 7 10 12 16 13 18 28 28 26 29 27 28 28 24 22 20 19 18 19 19 22 24 24 26 28 29 29 32 33 34 34 34 36
3 5 4 5 9 7 9 12 12 11 9 9 9 10 12 10 9 10 13 17 20 20 25 21 19 20 19 18 19 18 20 19 19 19 20 22 25 27 29 31 30 30 33
1 5 5 6 5 7 7 8 10 12 10 12 12 10 10 13 10 12 12 11 14 19 22 22 22 22 22 20 21 22 22 20 18 17 17 17 19 21 22 25 28 27 30
3 7 7 9 8 7 8 8 7 11 10 11 9 10 11 13 12 13 12 12 14 16 17 18 18 19 21 24 24 25 23 19 19 18 18 17 17 17 19 22 24 26 26
5 7 11 9 10 10 11 12 13 11 11 12 9 10 9 8 9 9 9 11 11 13 14 16 17 18 19 20 20 20 18 21 20 18 15 14 13 11 11 15 21 24 22
10 9 10 11 11 11 14 15 14 13 10 9 9 8 6 4 2 4 5 7 8 9 8 9 10 10 11 12 13 13 14 16 15 13 11 11 10 10 14 16 16 20 22
14 12 12 12 12 13 13 14 15 15 13 13 12 9 7 6 4 3 2 2 2 3 6 6 6 5 7 5 6 7 8 8 8 9 8 8 9 9 10 11 15 22 25
15 15 15 17 17 17 18 19 17 15 13 12 12 8 9 7 6 6 4 3 2 0 1 2 3 3 3 3 3 3 3 4 4 5 6 7 6 5 7 8 11 16 22
18 19 19 18 17 17 17 17 18 17 15 15 13 13 11 9 8 7 5 3 4 3 4 7 6 6 6 5 3 4 5 5 6 5 6 6 8 8 8 8 12 14 18
21 19 18 17 17 16 15 15 14 14 13 14 15 15 12 10 8 7 5 3 7 6 7 7 6 5 4 3 3 1 0 3 5 6 5 5 5 7 5 7 11 14 14
21 20 18 17 15 14 14 15 14 13 12 12 12 11 11 8 6 6 5 5 6 7 7 5 4 2 1 2 3 3 3 4 3 4 5 6 7 8 9 10 11 12 14
23 21 19 19 18 17 16 16 16 15 13 14 13 12 10 8 6 7 8 8 6 5 4 2 2 2 4 4 5 7 8 6 6 6 7 9 10 11 11 11 11 12 14
21 22 20 19 17 16 16 15 14 14 13 11 12 12 11 7 8 7 7 5 4 3 3 3 3 3 3 3 3 5 5 6 6 7 8 9 10 10 11 12 13 15 16
16 17 16 15 15 13 13 12 10 10 9 8 8 7 5 4 3 3 2 2 2 2 3 4 4 5 5 5 4 3 3 4 5 7 8 10 12 12 13 13 14 16 17
13 12 11 11 10 10 9 9 7 6 5 4 4 3 2 1 1 2 3 4 4 4 6 7 7 8 8 9 9 9 10 9 9 10 9 9 9 11 11 12 13 14 14
8 7 7 7 7 6 5 5 4 2 1 0 0 1 2 3 4 5 6 7 7 7 8 9 9 9 9 10 10 11 12 12 12 12 13 12 13 13 13 13 14 16 16
7 5 4 4 4 4 3 3 2 3 3 4 4 5 6 7 7 7 8 9 9 8 9 10 10 10 10 10 11 12 12 13 14 14 15 16 16 16 17 17 17 17 16
8 7 7 6 5 5 4 4 4 5 6 7 8 9 10 10 10 10 10 11 11 11 11 11 11 11 11 11 12 12 13 13 14 15 16 17 18 19 19 19 18 17 19
Wind_Direction
270 255 251 220 208 193 191 193 199 206 219 213 207 211 215 217 221 222 226 226 228 229 232 234 236 238 239 243 247 251 254 256 258 260 271 274 268 262 251 247 245 245 245
273 266 259 212 213 189 176 167 183 201 208 209 213 218 221 223 224 224 226 227 229 231 232 234 236 238 239 241 246 250 253 255 259 263 266 266 265 262 258 250 246 247 249
281 269 259 238 228 174 185 185 198 201 204 210 217 220 224 227 227 227 230 231 232 233 235 236 237 239 240 242 244 247 251 254 257 261 263 262 262 260 257 256 250 247 247
244 257 239 237 232 204 189 180 222 214 217 215 214 217 222 225 227 228 230 232 234 236 238 239 241 242 243 245 247 249 251 253 254 256 258 259 259 260 258 254 253 254 251
267 230 244 227 202 197 205 176 184 210 219 220 222 219 220 224 222 226 230 233 234 235 236 239 242 244 246 249 250 250 252 254 254 253 254 255 256 255 258 261 260 262 258
340 239 207 201 218 208 207 204 173 215 250 199 212 224 225 235 229 237 238 233 231 233 239 239 241 244 245 250 249 249 249 251 253 255 255 254 257 258 262 262 262 259 250
2 230 222 193 213 220 212 204 201 190 222 209 201 187 191 177 181 210 208 212 225 218 230 233 241 248 257 263 258 247 249 252 253 254 254 255 259 261 263 261 256 257 257
354 224 220 209 208 209 194 205 209 213 219 210 201 215 209 204 210 188 201 212 227 224 223 230 246 260 261 260 257 258 259 260 258 256 256 261 263 265 266 264 266 262 252
285 245 262 258 227 198 194 196 203 198 197 189 201 204 210 217 226 225 221 227 244 228 227 229 240 255 258 259 261 265 269 265 262 262 264 263 265 267 266 266 259 249 244
262 269 240 229 219 207 182 191 195 197 190 187 190 200 210 205 219 227 230 230 234 234 224 238 248 253 249 262 266 268 270 271 274 272 271 268 265 263 262 264 261 253 247
267 241 223 202 198 189 207 199 181 180 198 194 187 202 199 225 225 222 225 230 233 234 239 246 253 253 251 260 267 264 267 277 275 268 268 265 262 262 259 255 256 253 252
246 224 217 218 214 199 189 187 183 206 198 173 192 185 207 224 235 234 234 245 246 245 247 252 258 258 254 256 265 265 257 253 258 266 267 267 267 267 269 265 259 254 249
226 219 214 207 198 196 204 197 190 167 159 165 163 165 173 198 216 219 223 230 234 233 237 245 251 259 264 265 265 260 249 251 251 252 260 269 269 266 261 258 260 250 245
215 195 175 176 166 172 163 161 168 173 171 173 180 181 171 165 218 244 226 225 229 238 247 262 269 270 271 274 273 256 254 253 245 246 255 253 246 245 248 244 248 248 238
199 189 166 157 159 153 157 150 154 153 163 171 174 170 194 182 189 197 168 184 183 241 248 245 259 275 275 270 263 247 229 234 241 240 240 236 233 239 245 251 247 240 231
185 180 169 168 156 153 151 139 133 131 137 139 134 133 128 130 124 131 119 100 78 182 212 164 154 147 159 170 190 191 203 209 214 218 231 230 228 236 253 259 258 251 249
186 174 169 166 160 151 141 135 130 130 138 133 124 118 115 117 123 109 112 134 119 137 133 112 106 103 103 112 134 167 184 199 229 235 224 228 227 236 249 259 262 264 263
171 165 159 151 144 138 133 126 121 124 127 123 124 121 118 120 127 142 133 138 134 134 129 120 110 108 101 93 92 85 230 235 239 245 246 248 237 209 251 271 274 273 270
150 146 149 146 139 132 128 126 123 121 123 119 119 122 118 117 126 134 140 140 128 124 114 109 105 101 41 21 5 340 318 314 296 267 250 236 251 264 269 275 274 267 267
123 129 133 131 128 130 127 122 118 116 115 112 113 108 111 117 124 118 120 120 134 144 154 171 219 259 268 276 287 290 283 286 283 283 278 273 269 268 265 265 268 268 271
108 115 117 119 124 125 122 119 115 116 110 105 105 110 109 104 101 95 93 102 119 140 158 186 208 230 241 259 273 283 284 282 277 275 278 280 279 274 273 272 273 272 274
105 109 117 123 124 123 121 117 119 112 106 103 100 102 109 104 90 75 55 32 12 348 333 327 327 322 317 314 304 298 296 282 285 286 285 286 284 281 279 277 277 274 275
80 89 104 112 116 116 118 112 107 100 101 100 95 88 80 53 347 329 325 318 325 310 303 303 307 311 310 308 309 310 307 301 297 290 286 292 293 293 289 289 288 286 286
54 65 76 83 93 92 90 93 91 95 117 132 258 288 293 291 292 296 301 301 303 303 298 298 298 297 297 298 298 299 301 303 302 297 289 283 281 277 282 283 287 286 285
28 31 30 38 48 53 52 42 14 326 312 305 297 293 292 294 294 297 295 294 298 297 291 288 288 287 288 287 287 288 289 289 290 289 287 288 285 277 277 280 277 275 277
1 5 6 5 358 353 343 330 318 306 300 296 294 294 293 293 293 291 289 290 291 292 292 291 290 288 287 287 288 288 289 289 289 288 288 287 283 282 282 283 282 279 274
Height
1421 1421 1421 1421 1423 1426 1428 1432 1439 1445 1452 1460 1467 1474 1481 1488 1494 1501 1506 1511 1516 1521 1525 1529 1534 1538 1542 1545 1548 1550 1552 1554 1555 1557 1560 1561 1561 1562 1563 1564 1566 1568 1570
1421 1421 1422 1421 1422 1426 1429 1432 1438 1446 1452 1459 1465 1471 1478 1484 1491 1496 1500 1505 1510 1514 1519 1523 1527 1533 1536 1539 1542 1544 1546 1549 1551 1551 1554 1556 1557 1557 1559 1559 1560 1562 1565
1420 1421 1421 1423 1422 1427 1431 1433 1439 1446 1450 1456 1463 1469 1475 1481 1486 1491 1495 1500 1504 1508 1514 1519 1522 1526 1529 1532 1535 1537 1539 1543 1545 1545 1548 1550 1551 1552 1553 1555 1555 1555 1558
1419 1421 1421 1422 1424 1427 1431 1435 1439 1443 1448 1454 1460 1465 1470 1476 1481 1486 1490 1494 1499 1504 1509 1514 1517 1519 1523 1526 1528 1530 1532 1535 1538 1540 1540 1542 1544 1545 1547 1548 1549 1551 1552
1418 1420 1421 1422 1424 1426 1429 1433 1437 1442 1446 1452 1457 1460 1465 1472 1476 1481 1484 1489 1494 1499 1502 1507 1510 1513 1517 1519 1521 1524 1526 1528 1530 1532 1533 1535 1536 1536 1537 1542 1544 1545 1547
1417 1418 1420 1422 1424 1426 1428 1431 1435 1439 1441 1447 1451 1455 1462 1468 1471 1476 1480 1484 1487 1491 1497 1501 1504 1507 1508 1511 1514 1516 1519 1520 1521 1523 1525 1526 1527 1530 1531 1533 1536 1538 1538
1417 1418 1420 1422 1424 1425 1428 1430 1433 1437 1439 1443 1448 1453 1458 1463 1467 1472 1476 1478 1481 1486 1491 1495 1499 1501 1502 1503 1506 1508 1509 1512 1513 1516 1515 1518 1520 1524 1526 1526 1527 1527 1529
1418 1419 1419 1421 1422 1424 1426 1428 1431 1434 1436 1439 1444 1448 1453 1458 1462 1466 1470 1473 1477 1482 1485 1489 1491 1492 1493 1496 1498 1499 1501 1502 1504 1506 1507 1510 1512 1515 1518 1519 1520 1520 1520
1419 1418 1419 1419 1421 1422 1425 1427 1431 1433 1434 1436 1441 1445 1450 1454 1456 1461 1465 1469 1472 1476 1480 1483 1486 1489 1490 1491 1492 1493 1495 1495 1497 1499 1500 1501 1502 1505 1508 1509 1508 1511 1510
1419 1418 1419 1419 1419 1420 1422 1424 1428 1431 1434 1437 1439 1444 1449 1451 1454 1456 1459 1461 1467 1468 1474 1478 1480 1483 1484 1486 1487 1487 1487 1488 1489 1491 1492 1493 1494 1495 1498 1500 1503 1503 1505
1418 1419 1419 1420 1419 1420 1420 1423 1425 1429 1433 1434 1438 1443 1444 1449 1451 1454 1457 1459 1462 1466 1469 1470 1474 1476 1479 1480 1481 1481 1481 1482 1483 1485 1486 1487 1489 1490 1490 1493 1495 1498 1500
1417 1418 1419 1420 1421 1421 1421 1422 1424 1427 1430 1432 1437 1439 1444 1448 1449 1452 1454 1458 1460 1462 1463 1464 1467 1470 1472 1473 1474 1474 1475 1477 1477 1479 1480 1481 1482 1483 1485 1488 1490 1493 1495
1417 1419 1419 1419 1421 1422 1423 1424 1426 1429 1430 1433 1437 1440 1443 1445 1448 1450 1452 1454 1456 1458 1460 1462 1463 1464 1466 1467 1469 1469 1469 1471 1472 1473 1475 1476 1478 1479 1481 1482 1486 1487 1491
1418 1417 1418 1421 1420 1421 1422 1425 1426 1428 1430 1432 1436 1439 1441 1442 1445 1447 1450 1452 1454 1456 1457 1458 1460 1460 1461 1461 1462 1463 1463 1467 1468 1469 1470 1471 1473 1474 1478 1479 1480 1485 1488
1414 1415 1417 1419 1421 1422 1424 1425 1427 1428 1430 1432 1435 1437 1439 1442 1444 1447 1449 1450 1451 1453 1455 1456 1456 1455 1457 1457 1459 1461 1461 1464 1466 1466 1466 1468 1469 1471 1473 1474 1477 1479 1484
1408 1413 1416 1420 1421 1422 1424 1425 1427 1428 1430 1432 1434 1436 1438 1441 1444 1446 1449 1450 1452 1452 1453 1453 1455 1456 1456 1456 1457 1458 1460 1462 1464 1464 1463 1465 1466 1468 1470 1473 1474 1476 1478
1407 1413 1416 1419 1422 1423 1423 1424 1426 1430 1432 1433 1435 1438 1441 1443 1445 1447 1450 1451 1452 1454 1454 1453 1454 1454 1455 1456 1456 1457 1459 1460 1463 1463 1463 1462 1464 1466 1467 1471 1472 1473 1475
1410 1413 1415 1419 1421 1424 1425 1425 1427 1430 1432 1433 1434 1438 1442 1444 1447 1448 1450 1451 1451 1451 1454 1454 1454 1455 1455 1456 1457 1457 1459 1460 1461 1462 1462 1462 1463 1464 1466 1468 1470 1470 1471
1410 1412 1416 1420 1422 1425 1427 1426 1426 1430 1434 1434 1436 1438 1441 1444 1446 1447 1448 1449 1449 1450 1452 1453 1454 1455 1454 1455 1457 1458 1459 1459 1460 1460 1461 1460 1461 1463 1464 1465 1466 1467 1467
1412 1413 1418 1421 1424 1428 1428 1429 1428 1432 1435 1435 1437 1439 1441 1444 1446 1446 1446 1447 1449 1452 1452 1453 1455 1454 1454 1455 1456 1457 1458 1459 1459 1459 1460 1460 1461 1462 1461 1461 1462 1462 1462
1420 1420 1423 1426 1429 1431 1430 1430 1433 1435 1435 1437 1438 1441 1443 1445 1446 1447 1447 1448 1449 1450 1450 1452 1452 1453 1454 1455 1456 1456 1456 1457 1456 1457 1458 1458 1458 1459 1459 1458 1458 1458 1459
1429 1428 1427 1431 1432 1433 1434 1434 1438 1436 1437 1439 1442 1443 1445 1446 1447 1448 1448 1449 1449 1450 1451 1451 1452 1452 1452 1452 1452 1452 1453 1453 1454 1454 1455 1455 1455 1455 1455 1455 1455 1455 1455
1429 1431 1434 1434 1433 1435 1436 1434 1436 1436 1438 1442 1443 1444 1445 1446 1447 1447 1448 1448 1449 1449 1449 1450 1451 1451 1450 1451 1450 1450 1450 1450 1450 1450 1451 1452 1452 1452 1452 1452 1452 1452 1452
1434 1435 1435 1434 1435 1434 1434 1435 1437 1439 1441 1442 1443 1444 1445 1445 1446 1446 1446 1446 1446 1447 1447 1448 1449 1449 1449 1449 1448 1448 1448 1448 1447 1448 1448 1449 1449 1449 1449 1449 1449 1448 1447
1438 1438 1438 1436 1433 1434 1434 1434 1437 1439 1440 1441 1442 1442 1443 1443 1444 1444 1443 1443 1444 1445 1445 1446 1446 1446 1446 1446 1446 1446 1445 1445 1445 1445 1444 1444 1443 1443 1443 1442 1442 1442 1442
1437 1436 1434 1433 1433 1433 1433 1435 1436 1438 1439 1439 1440 1440 1440 1440 1441 1440 1440 1440 1440 1441 1441 1442 1442 1442 1442 1442 1442 1442 1441 1441 1441 1440 1440 1439 1438 1438 1437 1436 1436 1436 1436